Regional Weather Roundup
Issued by NWS

Home | Current Version | Previous Version | Text Only | Print | Product List | Glossary On
Versions: 1 2 3 4 5 6 7 8 9 10 11 12 13 14 15 16 17 18 19 20 21 22 23 24 25 26 27 28 29 30 31 32 33 34 35 36 37 38 39 40 41 42 43 44 45 46 47 48 49 50
000
ASUS44 KLIX 231114
RWRLA
LOUISIANA WEATHER ROUNDUP
NATIONAL WEATHER SERVICE NEW ORLEANS LA
600 AM CDT FRI JUN 23 2017

NOTE: "FAIR" INDICATES FEW OR NO CLOUDS BELOW 12,000 FEET WITH NO
      SIGNIFICANT WEATHER AND/OR OBSTRUCTIONS TO VISIBILITY.
      SKY/WX - SKY CONDITION AND SIGNIFICANT WEATHER.
      TMP - AIR TEMPERATURE.    DP   - DEWPOINT TEMPERATURE.
      RH  - RELATIVE HUMIDITY.  PRES - PRESSURE.
      HX  - HEAT INDEX.         WCI  - WIND CHILL INDEX.

*  THESE STATIONS ARE NOT NWS OR FAA STATIONS AND ARE NOT UNDER
   NWS QUALITY CONTROL.

LAZ040-048-061>063-065-066-069-231200-
SOUTHEAST LOUISIANA

CITY           SKY/WX    TMP DP  RH WIND       PRES   REMARKS
N.O. INTL ARPT MOCLDY    80  77  90 S10       29.89R
N.O. LAKEFRONT CLOUDY    81  77  88 S15       29.90R
N.O. DOWNTOWN*   N/A     81  76  84 S8          N/A
RESERVE*       PTSUNNY   81  77  89 S10       29.88S
SLIDELL        CLOUDY    81  76  84 S15       29.89S
BATON ROUGE    LGT RAIN  80  76  87 S14       29.85S
BOOTHVILLE     CLOUDY    81  79  94 S14       29.92R
BELLE CHASSE   CLOUDY    81  78  91 S14       29.90R
BOGALUSA*      CLOUDY    80  75  85 S9        29.90R
GALLIANO*      CLOUDY    81  75  83 S9G20     29.90R
NEW ROADS*       N/A     79  76  91 S7        29.84S
GONZALES*      CLOUDY    80  77  90 S12       29.86S
HAMMOND*       CLOUDY    79  73  83 S8        29.88R
HOUMA*         CLOUDY    81  77  89 S17       29.89
PORT FOURCHON* CLOUDY    81  77  89 S14G21    29.90R HAZE

$$

LAZ041-044-053-054-231200-
SOUTHWEST LOUISIANA

CITY           SKY/WX    TMP DP  RH WIND       PRES   REMARKS
LAKE CHARLES   CLOUDY    82  81  96 S7        29.82R HX  95
LAFAYETTE      CLOUDY    82  78  88 S16       29.84R
PATTERSON      CLOUDY    80  78  94 S9        29.87R
SALT POINT       N/A     81  78  91 VRB7      29.85R
NEW IBERIA     MOCLDY    82  79  89 S14G21    29.84
CHENAULT AIRPK MOCLDY    81  77  89 S12       29.82R

$$

LAZ027-028-231200-
CENTRAL LOUISIANA

CITY           SKY/WX    TMP DP  RH WIND       PRES   REMARKS
FORT POLK      CLOUDY    78  76  95 CALM      29.82R
ALEXANDRIA INT NOT AVBL
ALEXANDRIA     NOT AVBL

$$

LAZ001-002-231200-
NORTHWEST LOUISIANA

CITY           SKY/WX    TMP DP  RH WIND       PRES   REMARKS
SHREVEPORT     CLOUDY    78  77  96 SW9       29.74R
BARKSDALE AFB  CLOUDY    77  77 100 S8        29.74R
DTN SHREVEPORT CLOUDY    79  76  90 SW10      29.74S

$$

LAZ014-016-231200-
NORTHEAST LOUISIANA

CITY           SKY/WX    TMP DP  RH WIND       PRES   REMARKS
MONROE         RAIN      75  72  90 SW13G21   29.79R
TALLULAH       CLOUDY    78  74  87 S7        29.81R

$$




USA.gov is the U.S. government's official web portal to all federal, state and local government web resources and services.